Regional Weather Roundup
Issued by NWS

Home | Current Version | Previous Version | Graphics & Text | Print | Product List | Glossary On
Versions: 1 2 3 4 5 6 7 8 9 10 11 12 13 14 15 16 17 18 19 20 21 22 23 24 25 26 27 28 29 30 31 32 33 34 35 36 37 38 39 40 41 42 43 44 45 46 47 48 49 50
000
ASUS43 KOAX 280210
RWRNE

WEATHER ROUNDUP FOR NEBRASKA
NATIONAL WEATHER SERVICE OMAHA NE
900 PM CDT FRI MAY 27 2016

NOTES: SATELLITE DATA IS BEING USED TO AUGMENT CLOUD COVER ABOVE
       12000 FEET.
       "FAIR" INDICATES FEW OR NO CLOUDS BELOW 12,000 FEET WITH NO
       SIGNIFICANT WEATHER AND/OR OBSTRUCTIONS TO VISIBILITY.

  * THESE STATIONS DO NOT REPORT WEATHER SUCH AS RAIN...SNOW OR FOG.

NEZ001>004-019>022-054>056-280300-
NEBRASKA PANHANDLE

CITY           SKY/WX    TMP DP  RH WIND       PRES   REMARKS
SCOTTSBLUFF    PTCLDY    57  47  69 NW3       29.86S
ALLIANCE       PTCLDY    55  46  71 CALM      29.84S
CHADRON        MOCLDY    57  46  66 CALM      29.84S
KIMBALL        CLOUDY    52  44  73 CALM      29.90R
SIDNEY         CLEAR     53  48  83 N3        29.88R
$$

NEZ057>060-069>072-079>082-280300-
SOUTHWEST NEBRASKA

CITY           SKY/WX    TMP DP  RH WIND       PRES   REMARKS
NORTH PLATTE   LGT RAIN  60  52  74 SW7       29.77R
IMPERIAL       CLOUDY    55  46  71 N13       29.79S
LEXINGTON      CLOUDY    64  58  80 CALM      29.74R
MCCOOK         CLOUDY    57  50  77 NW20G29   29.77R
OGALLALA       PTCLDY    56  52  88 W5        29.82S
$$

NEZ005>010-023>029-035>040-094-280300-
NORTH CENTRAL NEBRASKA

CITY           SKY/WX    TMP DP  RH WIND       PRES   REMARKS
VALENTINE      CLEAR     62  47  57 NE6       29.80R
AINSWORTH      PTCLDY    62  50  64 N8        29.80R
BROKEN BOW     LGT RAIN  64  57  78 N8        29.73R
O`NEILL        CLOUDY    65  57  75 N5        29.74S
ORD            TSTM      67  58  72 NE8       29.71R
THEDFORD       CLOUDY    64  51  61 N7        29.79R
$$

NEZ041-046>049-061>064-073>077-083>087-280300-
SOUTH CENTRAL NEBRASKA

CITY           SKY/WX    TMP DP  RH WIND       PRES   REMARKS
GRAND ISLAND   TSTM      62  56  80 E22G32    29.74R
AURORA         TSTM      62  60  93 E18G25    29.74R
HASTINGS       TSTM      60  57  89 E17G26    29.74R
HEBRON         LGT RAIN  58  58  98 E12       29.70F
HOLDREGE       CLOUDY    62  59  89 CALM      29.71S
KEARNEY *      CLOUDY    64  57  77 NE5       29.72R
YORK           HVY RAIN  59  57  94 E7        29.76R
$$

NEZ011>018-030>034-042>045-280300-
NORTHEAST NEBRASKA

CITY           SKY/WX    TMP DP  RH WIND       PRES   REMARKS
NORFOLK        TSTM      62  53  72 W13G18    29.73R
ALBION         LGT RAIN  64  52  66 E5        29.71R
BLAIR          MOCLDY    70  62  75 E9        29.69R
FREMONT        CLOUDY    67  64  93 CALM      29.69S
TEKAMAH        MOCLDY    73  59  61 SE13      29.67R
WAYNE          CLOUDY    68  59  73 NE5       29.70R
$$

NEZ050>053-065>068-078-088>093-280300-
SOUTHEAST NEBRASKA

CITY           SKY/WX    TMP DP  RH WIND       PRES   REMARKS
LINCOLN        TSTM      62  60  93 NW12G22   29.70R VSB 3/4
OMAHA EPPLEY   CLOUDY    73  63  70 E7        29.69S
BEATRICE       TSTM      59  57  94 SW7       29.75R
FALLS CITY     LGT RAIN  70  66  87 S3        29.71R
NEBRASKA CITY  CLOUDY    69  65  87 SE9       29.71R
PLATTSMOUTH    DRIZZLE   71  65  82 E10       29.69S
$$

NEZ044-045-051>053-067-280300-
OMAHA AREA

CITY           SKY/WX    TMP DP  RH WIND       PRES   REMARKS
OMAHA EPPLEY   CLOUDY    73  63  70 E7        29.69S
BLAIR          MOCLDY    70  62  75 E9        29.69R
FREMONT        CLOUDY    67  64  93 CALM      29.69S
MILLARD        CLOUDY    71  64  76 SE7       29.69R
OFFUTT AFB     CLOUDY    71  64  81 E6        29.68S
PLATTSMOUTH    DRIZZLE   71  65  82 E10       29.69S
WAHOO          CLOUDY    69  64  83 SE5       29.69R
$$




USA.gov is the U.S. government's official web portal to all federal, state and local government web resources and services.